Big Rapids, MI

2:22 AM EDT on May 26, 2018 (GMT -0400)
Roben-Hood

Weather History for KRQB - July, 2013

Change the Weather History Date:

Monday, July 8, 2013

  Actual Average Record
Temperature  
Mean Temperature 70 °F -  
Max Temperature 73 °F 82 °F 98 °F (1988)
Min Temperature 68 °F 58 °F 44 °F (1984)
Cooling Degree Days 6    
Growing Degree Days 20 (Base 50)    
Moisture  
Dew Point 70 °F    
Average Humidity 96    
Maximum Humidity 100    
Minimum Humidity 76    
Precipitation  
Precipitation 0.36 in - - ()
Sea Level Pressure  
Sea Level Pressure 29.98 in    
Wind  
Wind Speed 5 mph (SSW)    
Max Wind Speed 13 mph    
Max Gust Speed 18 mph    
Visibility 6 miles    
Events Rain    
Averages and records for this station are not official NWS values.
T = Trace of Precipitation, MM = Missing Value Source: NWS Daily Summary

Daily Weather History Graph

Daily Weather History Graph

Search for Another Location

Airport or City:

Astronomy

Jul. 08, 2013 Rise Set
Actual Time 6:08 AM EDT 9:25 PM EDT
Civil Twilight 5:33 AM EDT 10:00 PM EDT
Nautical Twilight 4:47 AM EDT 10:46 PM EDT
Astronomical Twilight 3:50 AM EDT 11:42 PM EDT
Moon 6:40 AM EDT (7/8) 9:23 PM EDT (7/8)
Length of Visible Light 16h 27m
Length of Day
15h 16m
New Moon, 0% of the Moon is Illuminated
Jul 8
New Moon
Jul 15
First Quarter
Jul 22
Full
Jul 29
Last Quarter
Aug 6
New

Hourly Weather History & Observations

Time (EDT) Temp. Dew Point Humidity Pressure Visibility Wind Dir Wind Speed Gust Speed Precip Events Conditions
12:15 AM 70.0 °F 62.6 °F 77% 29.98 in 10.0 mi SSE 5.8 mph - N/A   Mostly Cloudy
12:35 AM 70.7 °F 62.8 °F 76% 29.99 in 10.0 mi Calm Calm - N/A   Overcast
12:54 AM 69.8 °F 64.0 °F 82% 29.99 in 10.0 mi SSW 6.9 mph - N/A   Overcast
1:15 AM 70.5 °F 66.4 °F 87% 30.00 in 3.0 mi WSW 3.5 mph - 0.09 in Rain Heavy Rain
1:35 AM 70.0 °F 68.7 °F 96% 29.99 in 7.0 mi WSW 5.8 mph - 0.12 in Rain Rain
1:54 AM 71.6 °F 69.8 °F 94% 30.00 in 5.0 mi SSW 4.6 mph - 0.16 in Rain Light Rain
2:15 AM 70.7 °F 69.8 °F 97% 30.01 in 4.0 mi Calm Calm - 0.03 in Rain Rain
2:35 AM 70.3 °F 70.0 °F 99% 30.01 in 4.0 mi South 5.8 mph - 0.03 in   Overcast
2:55 AM 70.7 °F 70.2 °F 98% 30.00 in 4.0 mi South 5.8 mph - 0.03 in   Overcast
3:15 AM 70.3 °F 70.0 °F 99% 30.00 in 5.0 mi South 3.5 mph - N/A   Overcast
3:34 AM 70.7 °F 70.2 °F 98% 30.00 in 5.0 mi Calm Calm - N/A   Overcast
3:55 AM 70.7 °F 70.3 °F 99% 29.99 in 3.0 mi South 6.9 mph - N/A   Overcast
4:15 AM 70.7 °F 70.7 °F 100% 29.98 in 5.0 mi South 5.8 mph - N/A   Overcast
4:34 AM 70.7 °F 70.3 °F 99% 29.97 in 5.0 mi SSW 3.5 mph - N/A   Overcast
4:55 AM 70.7 °F 70.2 °F 98% 29.98 in 5.0 mi South 4.6 mph - N/A   Overcast
5:15 AM 70.7 °F 70.3 °F 99% 29.97 in 7.0 mi South 3.5 mph - N/A   Overcast
5:34 AM 70.7 °F 70.2 °F 98% 29.97 in 5.0 mi SSW 3.5 mph - N/A   Mostly Cloudy
5:55 AM 70.7 °F 70.3 °F 99% 29.97 in 5.0 mi South 3.5 mph - N/A   Scattered Clouds
6:15 AM 70.7 °F 70.2 °F 98% 29.97 in 4.0 mi South 4.6 mph - N/A   Clear
6:34 AM 70.7 °F 70.3 °F 99% 29.97 in 4.0 mi South 5.8 mph - N/A   Clear
6:55 AM 70.7 °F 70.7 °F 100% 29.97 in 2.5 mi South 3.5 mph - N/A   Mostly Cloudy
7:15 AM 70.7 °F 70.7 °F 100% 29.97 in 3.0 mi South 6.9 mph - N/A   Overcast
7:34 AM 71.1 °F 70.9 °F 99% 29.98 in 3.0 mi South 3.5 mph - N/A   Overcast
7:55 AM 71.6 °F 71.2 °F 99% 29.98 in 4.0 mi South 6.9 mph - N/A   Overcast
8:15 AM 71.6 °F 71.4 °F 99% 29.97 in 3.0 mi South 6.9 mph - N/A   Overcast
8:34 AM 72.0 °F 71.6 °F 99% 29.97 in 4.0 mi South 5.8 mph - N/A   Mostly Cloudy
8:55 AM 72.0 °F 71.6 °F 99% 29.97 in 4.0 mi South 6.9 mph - N/A   Overcast
9:15 AM 72.1 °F 71.8 °F 99% 29.97 in 4.0 mi South 5.8 mph - N/A   Overcast
9:34 AM 72.1 °F 71.8 °F 99% 29.98 in 3.0 mi SSW 4.6 mph - N/A   Overcast
9:55 AM 72.5 °F 71.8 °F 98% 29.98 in 4.0 mi South 8.1 mph - N/A   Overcast
10:15 AM 72.7 °F 72.0 °F 98% 29.98 in 4.0 mi SSW 5.8 mph - N/A   Overcast
10:32 AM 73.0 °F 72.0 °F 96% 29.98 in 5.0 mi SW 6.9 mph - N/A   Light Drizzle
10:55 AM 73.8 °F 71.2 °F 92% 29.98 in 7.0 mi SW 5.8 mph - N/A   Overcast
11:15 AM 73.6 °F 71.1 °F 92% 29.98 in 7.0 mi WSW 6.9 mph 16.1 mph N/A Rain Light Rain
11:35 AM 73.6 °F 71.4 °F 93% 29.98 in 7.0 mi SSW 4.6 mph - N/A   Mostly Cloudy
11:55 AM 73.0 °F 70.9 °F 93% 29.99 in 10.0 mi SW 5.8 mph - N/A   Mostly Cloudy
12:14 PM 72.5 °F 70.0 °F 92% 30.00 in 7.0 mi SW 9.2 mph 16.1 mph N/A Rain Light Rain
12:35 PM 71.8 °F 69.8 °F 93% 30.00 in 7.0 mi SW 8.1 mph - 0.01 in Rain Light Rain
12:55 PM 71.2 °F 69.8 °F 95% 30.00 in 7.0 mi SW 5.8 mph - 0.02 in Rain Light Rain
1:14 PM 71.1 °F 69.8 °F 96% 30.00 in 7.0 mi SW 4.6 mph - 0.01 in Rain Rain
1:35 PM 71.2 °F 70.2 °F 96% 29.99 in 5.0 mi SSW 3.5 mph - 0.03 in Rain Rain
1:55 PM 70.7 °F 69.8 °F 97% 29.99 in 3.0 mi SW 12.7 mph 18.4 mph 0.07 in Rain Rain
2:14 PM 69.8 °F 68.7 °F 96% 29.98 in 5.0 mi SW 4.6 mph - 0.02 in Rain Rain
2:35 PM 69.8 °F 68.9 °F 97% 29.98 in 7.0 mi Calm Calm - 0.04 in Rain Rain
2:55 PM 69.8 °F 69.3 °F 98% 29.97 in 3.0 mi SSE 3.5 mph - 0.08 in Rain Rain
3:15 PM 70.0 °F 69.8 °F 99% 29.97 in 5.0 mi Calm Calm - N/A   Light Drizzle
3:35 PM 70.3 °F 69.8 °F 98% 29.97 in 5.0 mi SSW 3.5 mph - N/A   Overcast
3:54 PM 70.7 °F 70.0 °F 98% 29.97 in 7.0 mi SW 5.8 mph - N/A Rain Light Rain
4:15 PM 72.0 °F 70.7 °F 96% 29.96 in 10.0 mi WSW 5.8 mph - N/A   Overcast
4:35 PM 72.3 °F 70.5 °F 94% 29.96 in 10.0 mi SW 10.4 mph - N/A   Overcast
4:54 PM 72.5 °F 70.7 °F 94% 29.96 in 10.0 mi WSW 8.1 mph - N/A   Overcast
5:15 PM 72.1 °F 70.3 °F 94% 29.96 in 7.0 mi WSW 6.9 mph - N/A   Overcast
5:35 PM 71.8 °F 69.8 °F 93% 29.96 in 7.0 mi WSW 9.2 mph - N/A   Overcast
5:55 PM 71.8 °F 69.6 °F 93% 29.96 in 7.0 mi SW 8.1 mph - N/A   Overcast
6:15 PM 72.0 °F 69.8 °F 93% 29.96 in 7.0 mi West 6.9 mph - N/A   Overcast
6:35 PM 72.7 °F 70.3 °F 92% 29.95 in 7.0 mi SW 4.6 mph - N/A   Mostly Cloudy
6:54 PM 73.0 °F 70.0 °F 90% 29.95 in 7.0 mi SW 8.1 mph - N/A   Mostly Cloudy
7:15 PM 72.7 °F 70.0 °F 91% 29.96 in 7.0 mi SW 6.9 mph - N/A   Overcast
7:35 PM 72.5 °F 69.8 °F 91% 29.96 in 7.0 mi SSW 3.5 mph - N/A   Overcast
7:55 PM 72.5 °F 70.2 °F 92% 29.97 in 7.0 mi SW 4.6 mph - N/A   Overcast
8:15 PM 72.1 °F 70.2 °F 93% 29.97 in 7.0 mi SW 4.6 mph - N/A   Overcast
8:35 PM 72.0 °F 70.2 °F 94% 29.97 in 7.0 mi SW 4.6 mph - N/A   Overcast
8:55 PM 71.8 °F 69.8 °F 93% 29.97 in 7.0 mi WSW 3.5 mph - N/A   Overcast
9:15 PM 71.6 °F 70.0 °F 95% 29.97 in 5.0 mi Calm Calm - N/A   Overcast
9:35 PM 70.9 °F 69.8 °F 96% 29.97 in 5.0 mi Calm Calm - N/A   Mostly Cloudy
9:55 PM 69.4 °F 68.7 °F 98% 29.97 in 1.8 mi SW 3.5 mph - N/A   Mostly Cloudy
10:15 PM 69.1 °F 68.7 °F 99% 29.98 in 4.0 mi WNW 3.5 mph - N/A   Scattered Clouds
10:35 PM 69.4 °F 69.3 °F 99% 29.98 in 4.0 mi Calm Calm - N/A   Mostly Cloudy
10:55 PM 69.6 °F 69.1 °F 98% 29.98 in 5.0 mi West 5.8 mph - N/A   Mostly Cloudy
11:15 PM 69.1 °F 68.4 °F 98% 29.98 in 2.5 mi Calm Calm - N/A   Clear
11:35 PM 68.2 °F 68.0 °F 99% 29.99 in 1.8 mi Calm Calm - N/A   Overcast
11:55 PM 69.8 °F 69.8 °F 100% 29.99 in 5.0 mi WNW 4.6 mph - N/A   Overcast